Regional Weather Roundup
Issued by NWS

Home | Current Version | Previous Version | Text Only | Print | Product List | Glossary On
Versions: 1 2 3 4 5 6 7 8 9 10 11 12 13 14 15 16 17 18 19 20 21 22 23 24 25 26 27 28 29 30 31 32 33 34 35 36 37 38 39 40 41 42 43 44 45 46 47 48 49 50
000
ASHW40 PHFO 270312
RWRHI

WEATHER ROUNDUP FOR HAWAII
NATIONAL WEATHER SERVICE HONOLULU HI
500 PM HST WED APR 26 2017

THIS IS AN AUTOMATED REPORT THAT HAS NOT BEEN QUALITY CONTROLLED.

NOTE..."FAIR" INDICATES FEW OR NO CLOUDS BELOW 12,000 FEET WITH NO
SIGNIFICANT WEATHER AND/OR OBSTRUCTIONS TO VISIBILITY.

* - THESE SITES REPORT LIMITED FIELDS

HIZ001>004-270400-
KAUAI-NIIHAU-

CITY           SKY/WX    TMP DP  RH WIND       PRES   REMARKS
LIHUE APT      MOSUNNY   81  68  64 NE14      30.06F
PORT ALLEN*      N/A     84 N/A N/A NE16G22     N/A
POIPU*           N/A     82 N/A N/A E8G18       N/A
PRINCEVILLE*     N/A     79 N/A N/A E9G17       N/A
KOKOLE POINT*  NOT AVBL
MOLOAA DAIRY*    N/A     79  68  69 E5G13       N/A
WAIMEA HTS*    NOT AVBL
PUU OPAE*      NOT AVBL
PUU LUA*       NOT AVBL
MAKAHA RIDGE*  NOT AVBL
$$

HIZ005>011-270400-
OAHU-

CITY           SKY/WX    TMP DP  RH WIND       PRES   REMARKS
HONOLULU       MOSUNNY   83  60  45 E13       30.02F
KALAELOA       PTSUNNY   86  61  42 NE9       30.03F
KANEOHE MCB    SUNNY     80  68  66 E8        30.01F
WHEELER FIELD  MOSUNNY   78  62  57 E7        30.04F
BELLOWS*       NOT AVBL
KAHUKU*        NOT AVBL
WHEELER*       NOT AVBL
WAIANAE HARBOR NOT AVBL
DILLINGHAM*      N/A     88  70  55 SW6G17      N/A  HX  92
KAHUKU TRN*      N/A     79  66  65 W8G18       N/A
KAWAILOA*        N/A     75  64  69 E8G18       N/A
KII*             N/A     81  68  65 E12G18      N/A
MAKUA RANGE*     N/A     84  63  48 SW12G18     N/A
OAHU FOREST NW NOT AVBL
SCHOFIELD BRK*   N/A     64  48  55 MISG        N/A
SCHOFIELD S*   NOT AVBL
WAIANAE VLY*   NOT AVBL
KUAOKALA*      NOT AVBL
HONOULIUULI*   NOT AVBL
MOKUOLOE IS*   NOT AVBL
PALEHUA*       NOT AVBL
WAIAWA PHB*    NOT AVBL
$$

HIZ012>013-270400-
MOLOKAI-

CITY           SKY/WX    TMP DP  RH WIND       PRES   REMARKS
MOLOKAI AIRPT  SUNNY     73  67  81 NE10      30.03S
KALAUPAPA      NOT AVBL
MAKAPULAPAI*   NOT AVBL
MOLOKAI 1*     NOT AVBL
PUU ALII*      NOT AVBL
$$

HIZ016-270400-
KAHOOLAWE-

CITY           SKY/WX    TMP DP  RH WIND       PRES   REMARKS
KAHOOLAWE*     NOT AVBL
HAKIOAWA*      NOT AVBL
HONOKANAIA*      N/A     84  67  56 E16G29    29.96F
KANELOA*         N/A     77  66  69 E20G31    30.09
KEALIALALO*    NOT AVBL
LUA MAKIKA*    NOT AVBL
$$

HIZ014>015-270400-
LANAI-

CITY           SKY/WX    TMP DP  RH WIND       PRES   REMARKS
LANAI CITY     FAIR      76  65  68 NE17      30.06F
LANAI 1*       NOT AVBL
$$

HIZ017>028-270400-
MAUI-

CITY           SKY/WX    TMP DP  RH WIND       PRES   REMARKS
KAHULUI        MOSUNNY   83  65  54 NE17G25   29.98F
KAPALUA-W MAUI NOT AVBL
HANA AIRPORT   NOT AVBL
HANA*            N/A     79 N/A N/A E9G15       N/A
HALEAKALA SUMM   N/A     54 -13   6 E14         N/A
MAALAEA BAY*   NOT AVBL
HALEAKALA*     NOT AVBL
KAUPO GAP*     NOT AVBL
KULA 1*          N/A     59  54  84 NW5         N/A
$$

HIZ023>026-270400-
BIG ISLAND OF HAWAII COAST AND LOWER SLOPES-

CITY           SKY/WX    TMP DP  RH WIND       PRES   REMARKS
KAILUA KONA    PTSUNNY   82  67  60 SW12      29.98F
HILO           CLOUDY    79  67  66 E9        30.03S
HONOKAA*         N/A     72 N/A N/A VRB1        N/A
KAWAIHAE MWT*    N/A     81 N/A N/A SW9         N/A
KAWAIHAE*      NOT AVBL
SOUTH POINT*     N/A     77 N/A N/A N16G23      N/A
UPOLU AIRPORT* NOT AVBL
KAMUELA*       MOCLDY    73  63  68 NE13      30.11S
HAKALAU*         N/A     61  53  75 SE6G13      N/A
KALOKO-HONOKO* NOT AVBL
PALI 2*          N/A     70  59  68 SW12G21     N/A
KEALAKOMO*       N/A     82  64  54 E18         N/A
KAUPULEHU*     NOT AVBL
KAPAPALA*        N/A     71  59  64 SE3         N/A
LOWER KAHUKU*  NOT AVBL
PUHE CS*       NOT AVBL
PUHO CS*       NOT AVBL
PTA KEAMUKU*     N/A     66  59  77 CALM        N/A
WAIKOLOA*      NOT AVBL
$$

HIZ027>028-270400-
BIG ISLAND OF HAWAII INTERIOR AND SUMMMITS-

CITY           SKY/WX    TMP DP  RH WIND       PRES   REMARKS
BRADSHAW FIELD NOT AVBL
MK VISITOR CEN   N/A     55  27  33 S3          N/A
MAUNA KEA*       N/A     43  -9  11 NE3         N/A
MAUNA LOA*       N/A     52  39  62 MISG        N/A
MAUNA LOA 1*   NOT AVBL
PTA KIPUKA*      N/A     63  55  77 N7G13       N/A
PTA RANGE 17*    N/A     70  63  78 NW8G16      N/A
PTA WEST*        N/A     64  61  88 NW8G15      N/A
NENE CABIN*    NOT AVBL
AHUMOA*        NOT AVBL
PTA PORTABLE*  NOT AVBL
PUU MALI*        N/A     55  55 100 N5G12       N/A
$$

HIC003-270400-
NORTHWEST ISLANDS-

CITY           SKY/WX    TMP DP  RH WIND       PRES   REMARKS
MIDWAY ISLAND  SUNNY     70  48  46 N14G20    30.24S
MIDWAY NOS*    NOT AVBL
FRENCH FRIGATE NOT AVBL
$$

PHZ110>124-180-270400-
BUOY REPORTS

STATION/POSITION TIME  TEMP    WIND        PRES    WAVE   SWELL
                       AIR SEA DIR/SP/G            HT/PER HT/DIR
                 (UTC) (F)     (DEG/KT/KT) (MB)    (FT/S) (FT/D)
BUOY 51001       0250   76 78  130/ 12/ 16 1017.5F   6/11   5/290
BUOY 51101       0250   76 78  120/ 12/ 16 1018.1F   6/11   5/300
BUOY 51100       NOT AVBL
BUOY 51002       0250   78 79   70/ 14/ 17 1014.6F   7/ 9   5/100
BUOY 51003       0250   78 80  110/  4/  6 1015.7F   7/11   7/310
BUOY 51004       0250      78   60/ 14/ 17 1014.9F   6/ 8   5/ 90
BARBERS PT BUOY  NOT AVBL
WAIMEA BAY BUOY  0232      77                N/A     4/11   3/330
KAILUA BAY BUOY  0204      79                N/A     5/ 8   2
LANAI BUOY       0245      80                N/A     3/12   2/240
BARBERS PT 2     NOT AVBL
PAUWELA MAUI     0239      77                N/A     5/11   2/320
HILO             0242      80                N/A     6/ 8   2/340
KANEOHE BAY BUOY 0255      79                N/A     4/ 8   2
HANALEI KAUAI    0252      78                N/A     5/10   2/310
KAHULUI HARBOR   0242   78 80   50/ 18/ 23 1015.7F
HONOLULU HARBOR  0248   81 80  350/  2/  8 1017.4F
KILO NALU        NOT AVBL
HILO HARBOR      0242   83 77   70/  5/ 10 1016.5F
MOKUOLOE         0236   79 80   50/  9/ 12 1017.1F
NAWILIWILI       0248   78      60/ 11/ 13 1017.3F
WHOTS BUOY       NOT AVBL
BUOY 51028       NOT AVBL
$$

......................KEY........................................
  SKY/WX - SKY CONDITIONS/PRESENT WEATHER
  TMP    - TEMPERATURE IN FAHRENHEIT
  DWPT   - DEWPOINT IN FAHRENHEIT
  RH     - RELATIVE HUMIDITY IN PERCENT
  WIND   - DIRECTION AND SPEED /MPH FOR ISLANDS...KTS FOR BUOYS/
  PRES   - MEAN SEA LEVEL PRESSURE IN INCHES OF HG
  VSB    - VISIBILITY IN MILES
  HX     - HEAT INDEX
  WCI    - WIND CHILL INDEX
  VRB    - VARIABLE WIND DIRECTION
  N/A    - NOT AVAILABLE




USA.gov is the U.S. government's official web portal to all federal, state and local government web resources and services.